GFSMA_con_3kmhel_189.txt.gz
Helicity
176 147 148 156 162 167 165 149 135 135 135 147 167 185 221 236 232 223 237 280 279 278 249 242 231 228 220 212 192 199 238 241 255 256 293 338 282 255 255 152 105 62 50
149 159 147 158 177 155 139 132 137 146 151 161 225 248 247 259 260 242 190 209 215 204 199 216 218 227 158 157 141 174 168 175 189 245 269 297 284 256 180 282 249 186 92
146 142 153 177 160 142 146 146 157 160 191 242 291 295 307 310 284 240 181 137 130 197 172 179 191 189 184 154 139 162 170 185 201 222 233 256 262 235 241 202 220 302 261
154 166 170 173 156 156 150 160 159 186 223 268 303 308 310 290 256 227 195 154 134 129 157 167 197 196 199 174 154 143 154 201 202 180 231 257 277 263 206 206 263 155 238
177 165 159 155 150 148 151 144 162 151 230 292 326 343 316 275 219 173 164 151 138 129 113 144 162 204 202 225 210 194 121 115 169 211 200 221 244 292 232 197 142 193 225
178 165 159 146 128 135 139 143 152 208 243 312 384 386 329 271 221 183 144 119 117 111 123 122 115 128 194 221 216 221 219 204 205 191 178 147 167 195 209 224 237 170 209
165 151 145 141 141 141 114 116 147 222 325 326 345 348 324 257 195 150 119 80 78 75 106 94 97 101 118 190 221 221 252 245 232 223 207 169 192 206 206 197 175 195 164
158 150 141 142 138 137 144 133 146 201 260 219 189 198 167 174 220 176 127 99 55 34 71 80 83 87 83 90 119 177 205 223 239 226 210 189 177 184 197 196 212 210 221
158 154 148 137 139 133 140 136 117 133 173 215 224 165 160 148 153 127 120 82 71 71 47 50 49 48 39 43 45 70 132 168 184 179 170 184 177 190 180 175 154 177 220
154 146 137 141 144 138 134 111 107 109 148 187 250 200 185 156 150 146 121 98 89 78 55 35 34 21 20 5 37 55 70 90 122 131 142 139 136 168 175 171 161 153 158
152 152 148 150 144 111 102 106 134 160 144 142 150 172 190 193 169 147 144 109 71 55 44 16 18 38 40 30 6 38 61 62 64 67 90 115 125 142 150 149 147 171 141
160 154 149 131 108 104 97 110 142 165 162 166 157 130 117 133 152 147 148 95 74 61 38 25 25 26 41 42 33 46 61 58 63 55 47 66 100 118 134 144 143 154 165
146 129 116 107 103 99 104 114 139 146 144 152 154 151 156 162 127 130 142 87 58 49 45 19 29 30 39 41 41 48 51 48 52 52 57 50 50 72 107 124 126 129 131
124 109 114 105 115 128 143 142 140 140 148 150 163 169 174 173 145 106 82 57 58 42 37 30 29 32 37 38 46 50 21 50 46 47 54 60 64 57 57 84 100 113 117
134 123 114 142 151 165 168 161 150 142 149 145 156 159 151 140 127 110 90 57 47 43 47 47 42 44 51 40 53 49 37 64 56 50 48 55 60 67 64 58 63 80 101
151 136 147 167 183 192 188 185 170 145 162 148 148 160 143 116 111 99 77 72 66 46 44 59 50 43 44 37 55 53 49 64 55 55 56 46 49 57 65 67 69 66 72
152 156 163 180 191 205 193 198 172 154 172 168 159 151 134 99 103 100 85 80 79 56 51 51 47 37 46 57 62 58 58 48 59 68 55 47 49 53 64 63 66 78 81
171 169 176 190 200 204 184 185 172 150 157 166 148 142 116 88 115 99 88 95 84 79 49 42 43 44 41 60 46 53 68 61 62 75 70 50 58 64 60 72 68 73 79
197 188 184 192 198 196 203 197 183 171 173 165 146 134 108 113 117 96 91 92 87 90 79 51 42 39 36 76 59 49 61 94 72 59 61 70 60 75 83 85 83 88 91
202 198 184 182 194 215 229 209 213 219 222 194 164 148 130 115 91 87 103 87 80 91 80 65 64 53 51 60 48 65 58 49 55 79 54 68 78 85 96 99 112 111 109
173 171 189 182 192 212 221 223 222 227 229 199 155 131 109 101 107 101 80 68 77 73 67 62 59 48 47 40 56 54 51 48 32 56 47 68 94 105 103 98 98 120 123
207 176 167 176 200 187 197 175 195 192 172 154 146 135 122 115 110 117 115 115 91 60 59 45 44 59 44 29 30 45 53 53 41 68 62 51 106 111 114 105 132 120 118
208 195 187 216 233 184 185 144 155 160 144 132 124 108 105 85 91 83 108 117 111 97 62 47 56 43 45 42 39 49 36 23 15 46 76 61 104 92 104 95 123 119 112
209 225 196 197 216 185 176 125 133 160 157 121 107 101 112 72 56 88 96 98 85 64 40 49 56 45 33 40 54 48 40 45 38 38 67 73 100 82 97 70 133 140 135
286 247 208 198 183 208 146 82 124 151 155 129 117 115 115 93 46 69 84 84 79 76 121 116 108 98 88 93 78 46 63 63 58 65 73 54 70 86 88 71 52 128 124
234 295 246 168 176 239 109 102 137 160 148 125 123 113 97 93 75 72 89 81 94 92 108 106 95 100 97 87 98 63 49 58 65 76 74 96 85 79 95 84 61 63 69

GFSMA_con_3kmhel_192.txt.gz
Helicity
154 176 172 116 112 120 133 141 148 149 163 188 210 201 213 212 192 190 235 288 286 274 260 234 220 189 137 128 151 161 153 143 160 182 202 238 307 282 274 265 237 224 224
180 170 155 132 151 146 148 164 164 165 195 215 247 240 230 215 208 207 185 209 241 238 235 216 188 178 159 119 122 129 141 167 165 162 206 222 241 271 286 241 289 266 223
156 141 137 151 153 150 157 178 173 190 235 246 261 250 240 238 236 226 187 164 159 202 186 191 180 172 160 144 115 104 96 129 153 161 180 210 222 257 253 260 260 235 313
138 145 151 159 153 155 155 165 175 229 252 261 273 274 270 267 242 215 185 155 141 128 154 180 193 199 197 182 157 160 124 100 114 157 171 191 203 193 216 236 257 302 205
152 165 160 150 144 156 148 139 176 193 252 281 301 309 294 259 215 184 179 159 141 131 114 140 170 207 209 208 211 194 183 184 176 158 160 180 193 196 185 195 206 230 286
179 180 173 158 142 152 151 166 209 281 263 292 354 355 282 235 212 185 146 120 122 121 109 105 110 137 193 205 212 226 223 227 212 197 175 156 146 184 205 209 211 218 216
179 178 171 157 146 154 159 184 241 265 303 316 316 295 260 226 203 163 135 108 115 116 119 116 100 102 113 171 196 189 192 194 175 154 139 142 152 169 190 190 178 173 180
162 168 158 161 154 164 158 152 186 229 256 184 154 164 144 139 188 163 120 111 105 83 108 119 110 108 97 79 97 139 154 162 150 140 143 136 142 151 174 186 176 138 141
191 183 162 159 157 151 150 132 151 184 187 171 164 132 120 110 121 118 130 120 126 121 120 96 84 86 84 83 69 73 112 122 119 113 108 127 138 148 145 142 166 166 148
187 169 161 145 130 133 152 137 114 123 154 173 176 157 159 131 122 130 131 119 127 136 108 94 94 70 57 36 57 81 94 108 105 96 86 92 101 116 126 141 125 120 129
174 168 148 144 143 145 146 137 126 129 134 155 149 154 163 182 175 149 142 140 126 116 86 73 67 59 65 53 38 60 78 80 92 93 86 87 77 82 106 122 123 125 130
184 168 158 152 141 147 136 136 143 139 127 137 133 140 135 145 149 157 177 153 134 107 66 57 65 66 72 72 61 70 68 75 71 77 84 86 88 80 70 91 100 104 118
175 147 147 151 150 136 130 132 143 148 141 155 154 162 154 133 143 156 199 147 118 86 69 58 64 57 65 64 51 64 77 58 68 71 79 77 83 86 89 82 80 88 93
156 133 141 135 118 116 123 136 135 131 143 157 174 178 182 194 178 158 143 134 141 97 68 59 48 62 59 53 58 75 46 65 60 63 68 68 71 74 78 85 88 75 81
143 146 141 129 109 116 105 110 127 152 167 161 161 165 177 188 190 167 140 90 90 73 65 53 50 54 44 38 58 45 38 55 54 58 54 58 58 66 70 72 74 74 87
164 151 149 141 120 112 104 133 153 147 166 150 144 164 173 168 177 161 128 99 74 65 57 44 54 43 46 45 69 49 49 72 63 57 52 59 54 52 59 63 69 74 73
146 153 144 134 117 110 126 160 156 148 165 157 146 158 162 140 145 127 113 95 88 68 56 41 53 48 73 76 71 60 58 74 61 73 52 45 50 45 51 54 63 71 78
150 147 140 148 137 133 138 152 154 142 147 142 136 150 149 123 144 114 105 105 93 69 44 43 56 91 84 76 58 64 72 65 54 56 58 44 45 54 54 57 61 66 61
164 153 158 158 157 151 154 163 158 158 154 137 120 146 142 133 136 115 108 100 91 86 82 54 58 73 56 73 59 41 48 58 64 60 65 67 72 72 75 82 82 87 84
164 144 165 151 164 165 169 174 187 194 185 162 147 154 147 127 118 114 109 91 82 99 91 73 70 76 62 48 45 55 53 49 67 63 66 76 85 92 105 89 88 88 93
148 160 199 189 193 165 157 193 192 207 211 210 199 183 146 128 114 91 82 77 93 83 72 79 73 62 65 54 55 57 53 48 42 67 34 61 66 70 83 79 83 87 89
203 198 206 197 207 153 135 161 216 218 188 186 186 155 143 146 133 127 114 98 68 50 53 59 54 45 30 38 48 52 56 59 42 61 50 40 57 58 62 50 95 85 76
289 316 302 261 225 180 134 177 191 209 175 164 177 178 156 109 114 103 105 107 102 98 65 62 62 49 52 43 39 48 48 45 44 50 64 46 59 49 53 64 111 108 107
314 336 401 237 175 144 147 172 178 193 176 169 166 149 136 110 102 101 90 93 84 61 68 91 85 69 72 68 60 52 40 37 31 38 64 58 64 34 48 58 113 119 117
307 291 242 221 155 155 139 162 200 189 176 172 151 138 114 93 83 81 79 83 89 102 76 111 115 111 107 97 91 60 68 68 57 60 75 45 56 53 41 49 59 109 111
285 248 206 195 180 180 145 161 187 191 161 165 147 125 110 81 83 80 84 76 86 88 87 82 80 100 98 84 94 70 55 61 55 58 69 62 57 43 57 65 46 72 61

GFSMA_con_3kmhel_195.txt.gz
Helicity
233 196 191 222 198 190 144 157 170 174 182 165 152 149 160 154 161 153 199 275 266 241 226 174 169 141 114 110 127 129 148 158 157 136 168 181 214 259 251 240 235 269 305
205 190 196 198 184 137 133 140 147 161 172 167 176 171 166 153 160 157 140 207 238 245 208 192 166 141 137 98 75 89 99 123 155 148 162 200 198 204 248 257 240 223 237
176 159 206 192 157 138 149 163 186 168 170 175 186 179 173 174 167 165 147 122 130 203 203 171 174 173 132 125 124 101 92 100 135 151 154 170 167 166 159 178 232 247 243
180 184 176 172 141 151 157 160 162 194 201 185 192 190 175 165 166 165 138 105 93 84 150 204 202 195 200 199 179 164 146 146 140 124 119 143 152 174 184 187 187 232 251
135 144 147 152 153 171 172 183 176 183 198 209 210 198 189 185 175 142 138 129 124 111 94 143 202 208 216 215 211 206 187 171 165 158 144 116 117 145 172 184 178 192 218
135 134 164 164 168 182 205 188 186 203 205 203 233 243 218 198 171 148 129 118 119 122 113 106 95 141 202 220 215 212 200 174 155 136 122 119 125 130 139 164 177 151 155
153 142 149 170 176 171 161 169 212 231 224 205 245 252 252 224 190 146 119 107 116 113 108 106 96 91 109 179 193 191 185 169 142 120 117 121 123 120 128 143 156 154 143
159 145 139 155 165 187 173 161 169 198 185 146 176 188 165 148 163 143 122 130 129 106 114 126 130 125 93 87 120 163 181 177 148 117 109 111 110 120 132 129 134 140 143
190 148 137 122 171 179 160 124 123 155 186 140 139 168 141 133 131 106 137 140 138 120 120 125 121 106 98 88 91 112 152 160 148 133 127 121 114 115 123 122 127 132 139
159 135 123 103 147 149 137 129 131 140 146 172 170 148 139 128 121 111 101 123 129 141 146 128 111 97 88 75 95 111 121 147 147 131 127 126 121 112 111 111 106 111 115
165 146 151 129 136 132 127 124 116 122 155 155 143 142 139 143 139 133 126 117 130 149 145 128 97 87 86 88 79 104 128 119 124 115 104 99 98 105 102 104 97 91 97
195 150 174 145 145 142 129 138 132 122 126 117 122 122 121 130 125 142 148 112 137 154 147 129 109 90 83 78 90 99 85 84 88 94 93 97 102 105 108 107 99 97 81
193 160 152 139 143 141 158 170 154 130 117 122 128 130 127 125 108 122 125 132 146 150 128 103 105 81 74 70 70 58 88 79 86 93 95 97 101 103 104 102 96 103 98
173 148 158 156 153 161 164 145 148 152 152 149 146 132 125 108 102 115 125 155 169 156 123 97 81 74 66 63 68 60 60 70 79 85 87 82 79 83 86 88 89 91 91
151 147 147 150 158 154 136 137 142 152 152 149 142 131 129 132 145 147 144 128 135 133 120 88 69 75 67 65 66 51 46 67 81 75 75 70 70 74 80 81 81 81 95
146 173 171 148 153 130 118 127 134 139 144 128 118 123 136 151 169 167 149 114 98 110 106 81 80 78 75 66 68 43 55 63 91 81 59 63 61 66 66 69 67 63 83
168 158 164 151 134 121 111 112 115 114 116 136 139 148 162 157 168 164 142 118 105 97 101 95 83 80 81 79 56 39 49 57 49 70 59 56 67 66 67 63 66 65 67
143 138 152 149 137 129 111 97 98 92 120 129 135 137 153 158 174 151 133 122 112 100 91 89 85 79 88 75 47 62 63 71 52 70 62 68 65 69 70 68 70 68 65
154 132 154 146 147 140 118 106 94 128 147 151 136 138 141 143 165 141 125 127 117 108 95 76 87 75 80 73 47 62 71 68 61 59 52 68 75 76 72 76 78 86 79
167 164 161 174 173 148 139 134 143 165 181 175 145 146 142 140 142 140 148 144 126 125 118 109 105 84 69 57 65 73 71 72 76 53 57 65 59 62 76 73 77 78 72
141 186 191 184 182 156 148 137 149 170 178 187 183 167 174 155 139 131 130 130 114 110 101 98 94 74 66 51 68 67 65 45 56 75 58 55 47 49 51 68 73 78 68
185 189 179 172 149 162 143 150 160 174 199 199 193 184 181 180 178 194 190 166 133 108 100 90 83 81 55 42 55 63 62 55 48 71 43 55 34 51 53 65 81 77 79
193 183 203 202 210 152 134 142 137 176 207 186 176 162 179 168 159 172 181 181 182 176 147 99 93 75 49 41 47 54 65 65 63 72 58 58 64 53 59 67 93 93 94
232 239 200 204 271 287 240 221 183 157 163 181 157 152 149 150 130 134 136 153 141 124 119 108 101 79 62 56 67 69 64 64 65 71 80 68 77 62 50 61 92 92 89
219 193 180 217 229 211 205 214 176 165 177 168 164 141 140 146 121 114 126 140 135 119 134 135 130 111 94 93 83 50 64 55 55 68 81 68 88 77 54 56 67 67 70
222 213 198 192 169 165 178 174 186 178 224 214 170 146 124 129 102 95 110 110 120 105 94 82 79 88 86 85 99 82 65 72 79 64 91 69 75 80 58 63 58 63 62

GFSMA_con_3kmhel_201.txt.gz
Helicity
218 188 190 206 231 249 223 232 220 184 150 249 237 181 219 268 158 220 282 311 266 223 199 177 159 138 128 152 146 144 144 143 133 129 131 134 135 138 140 151 159 189 215
189 183 202 173 195 189 220 207 226 239 283 206 203 215 233 201 138 132 179 247 261 253 237 215 216 170 130 122 136 133 141 146 141 127 121 125 137 144 148 147 146 153 165
203 202 198 152 135 155 205 253 289 388 287 239 245 226 252 215 199 122 126 136 181 303 281 256 275 272 232 161 124 109 108 115 109 117 127 137 130 141 154 159 159 159 149
266 299 274 178 151 180 162 229 243 251 223 205 202 211 200 172 182 147 149 113 111 149 227 266 280 310 298 232 176 137 117 105 107 105 111 122 135 143 161 177 180 176 180
219 213 167 170 206 221 215 209 183 202 280 241 159 173 177 160 189 166 159 166 150 107 120 172 273 288 288 271 216 169 142 121 112 105 101 113 124 132 139 146 161 178 186
216 200 179 215 242 211 215 155 144 192 199 166 264 209 182 174 147 154 159 168 156 139 92 53 105 198 273 277 259 202 156 136 117 115 126 122 124 125 128 131 133 149 166
236 200 232 210 184 213 199 170 159 159 216 194 212 233 220 187 140 164 156 156 157 158 139 132 109 99 124 218 273 232 188 157 141 124 121 133 137 125 115 109 108 118 122
249 232 229 188 217 213 182 165 196 175 214 252 222 198 190 143 165 179 186 174 168 145 174 201 184 144 119 113 157 196 188 157 137 130 130 129 129 135 122 121 121 133 137
225 213 221 193 226 239 218 200 185 182 213 150 148 187 171 154 181 155 166 167 128 132 138 143 142 130 123 125 120 130 183 155 139 131 123 120 122 116 120 138 132 142 147
221 216 217 223 208 259 241 234 206 198 145 159 142 188 245 187 154 199 151 143 155 151 155 136 131 122 118 99 115 143 158 172 157 148 142 134 128 130 129 161 127 126 142
241 236 228 255 217 260 277 229 209 183 166 122 126 158 154 155 174 164 173 149 157 151 153 131 129 123 140 119 95 126 162 175 164 155 148 143 141 137 136 139 132 126 123
333 268 257 255 242 227 225 245 209 172 149 120 114 125 154 167 144 131 174 158 171 155 156 145 131 132 123 137 137 126 151 170 167 153 149 144 141 138 131 131 139 140 123
421 367 328 317 308 272 241 247 241 153 148 117 116 124 123 126 131 130 158 169 214 182 159 153 150 137 125 104 109 110 134 153 156 149 139 134 133 135 129 127 145 124 114
405 412 414 391 317 311 298 262 232 215 165 144 119 130 136 137 142 146 218 205 216 180 144 157 140 126 109 111 104 55 112 135 141 145 144 135 132 136 127 116 116 125 111
418 374 394 382 355 321 319 274 249 227 215 128 143 160 156 148 138 161 158 127 142 163 154 153 164 113 116 77 99 64 122 126 128 135 147 140 128 122 113 106 106 113 99
413 423 425 421 375 340 291 265 276 276 227 158 142 155 149 131 141 165 180 136 83 115 185 135 153 106 101 115 110 147 120 100 115 118 114 126 111 101 98 101 101 98 101
437 454 443 438 398 337 326 301 285 254 220 128 148 143 131 136 151 144 175 184 140 186 286 197 158 127 119 119 109 115 50 64 76 107 93 95 96 87 90 93 94 98 95
601 436 453 473 346 372 346 348 394 234 194 153 141 142 161 162 170 185 169 160 183 247 262 193 148 124 125 120 119 117 103 120 90 84 79 91 88 75 82 91 96 99 97
477 531 546 479 387 386 424 342 232 183 183 188 183 206 189 186 202 184 202 202 190 201 193 201 177 160 145 136 134 129 107 109 107 60 45 59 52 49 50 88 110 112 113
641 767 722 594 433 386 343 246 145 253 302 291 293 313 310 312 308 307 304 291 230 213 203 203 209 214 200 190 154 140 130 173 122 63 71 87 12 24 28 61 113 120 115
626 785 698 737 413 354 234 197 211 246 214 271 302 269 275 316 302 251 253 277 301 266 204 183 180 172 164 154 162 159 162 113 102 93 88 88 38 37 72 72 86 108 120
647 485 406 347 315 147 122 107 141 155 194 226 236 258 257 268 307 345 347 314 210 185 184 173 159 163 176 170 138 133 119 91 75 92 77 80 56 86 59 84 62 87 95
347 350 288 173 125 97 132 102 84 149 177 195 209 214 234 240 239 262 304 333 349 357 256 164 182 140 138 132 131 112 117 83 99 82 70 39 30 32 21 93 74 55 68
277 182 158 127 129 126 121 84 94 136 174 182 193 225 240 261 221 232 260 270 316 366 291 190 180 184 169 144 128 139 116 122 119 103 103 57 91 91 68 88 65 41 42
138 109 76 88 120 164 119 111 157 175 181 214 232 227 213 276 207 193 207 265 235 290 350 334 274 247 226 222 177 107 117 97 98 140 111 104 113 73 54 44 74 8 40
110 78 86 119 105 159 122 181 222 283 297 343 332 324 365 332 364 310 243 193 192 200 203 190 179 177 176 182 191 217 162 132 156 140 132 100 115 82 51 63 45 69 46

GFSMA_con_3kmhel_204.txt.gz
Helicity
265 209 145 164 179 233 220 235 258 257 190 216 249 267 291 265 278 302 320 324 227 193 140 139 120 116 135 157 170 179 174 154 138 136 149 145 138 131 129 139 144 154 175
313 245 295 294 270 222 255 281 280 284 328 316 428 425 397 239 193 321 296 248 236 225 234 211 170 129 127 136 143 147 147 142 131 127 132 133 135 140 147 145 136 135 147
332 342 311 304 255 256 284 256 245 315 369 441 604 711 579 227 108 152 164 163 229 282 292 296 269 225 164 128 121 128 126 126 114 126 118 127 126 132 137 149 158 163 160
360 340 257 258 223 258 203 205 266 399 426 387 471 480 403 282 182 105 131 111 141 221 297 296 339 319 265 208 159 125 130 126 129 118 121 123 122 136 150 154 162 170 165
428 395 271 267 255 251 183 298 359 415 434 384 386 332 286 211 208 229 239 160 130 140 183 234 279 344 350 254 186 152 135 121 122 113 106 117 117 112 128 131 147 142 157
393 342 315 256 201 156 176 337 387 403 368 306 308 303 239 246 289 239 210 213 115 78 108 142 188 268 330 325 248 174 146 129 124 124 118 124 118 102 101 107 123 132 130
335 317 179 215 225 259 258 390 392 429 369 342 395 384 260 219 171 210 177 150 158 176 84 101 93 154 224 322 305 210 167 160 146 132 129 134 132 126 110 115 127 136 120
286 295 285 300 250 269 341 405 428 458 365 377 345 334 346 347 151 139 174 165 156 223 300 291 204 115 127 151 176 206 173 143 126 119 127 119 115 124 123 117 131 126 137
338 319 343 309 251 263 373 374 371 416 426 285 198 225 361 294 240 187 171 156 164 196 193 199 156 129 165 146 159 185 197 170 143 125 116 111 113 118 138 111 117 139 146
358 362 366 318 250 318 395 363 360 351 352 325 132 209 277 277 317 230 146 157 152 164 122 109 129 174 180 147 169 193 215 204 148 131 120 118 122 121 132 124 119 128 134
362 378 374 392 313 377 393 343 336 352 297 308 213 310 287 223 215 218 216 211 198 184 150 143 130 151 114 139 159 171 197 187 160 136 131 130 126 121 134 135 128 118 119
414 353 408 443 361 386 380 383 342 343 284 243 218 243 281 245 244 211 193 199 208 190 200 200 150 195 249 183 141 152 182 187 164 150 146 135 129 123 131 148 127 119 111
418 359 397 439 426 408 431 407 345 325 246 237 256 318 261 184 144 196 230 231 295 267 228 166 199 193 150 156 113 124 163 167 154 154 148 145 135 122 117 123 129 118 113
532 430 441 423 437 402 402 370 341 285 263 276 244 268 247 150 177 254 230 287 342 250 222 222 219 241 186 115 97 118 125 167 169 155 145 128 124 122 122 126 132 111 113
502 489 473 443 404 371 414 401 427 337 313 300 273 288 269 262 232 261 246 275 321 259 218 201 244 208 224 142 68 93 115 123 135 147 146 139 128 126 129 128 119 114 104
582 460 441 450 467 427 461 449 472 421 398 411 393 313 318 279 230 255 295 298 219 207 249 214 198 227 138 144 104 186 113 104 119 132 145 135 131 127 128 131 125 107 88
636 530 521 469 485 417 599 589 533 509 467 459 407 327 319 232 192 262 260 200 144 194 296 230 229 178 200 150 190 123 111 101 110 129 133 132 120 120 124 130 127 109 84
603 595 504 559 691 789 502 610 549 510 470 488 383 329 382 245 154 215 324 281 233 312 422 319 262 226 195 143 128 93 80 110 92 109 108 104 98 92 99 120 125 116 88
540 567 510 709 591 752 589 392 518 549 535 447 376 329 285 151 192 262 323 325 365 446 411 391 276 219 181 157 175 173 250 165 105 97 83 67 55 48 68 89 116 117 101
600 695 732 725 766 616 668 464 548 614 545 474 360 386 227 253 305 320 323 369 405 403 345 336 290 290 259 212 162 160 220 233 114 68 58 48 35 51 44 79 90 98 99
716 918 822 825 681 584 590 481 520 563 491 410 425 281 327 357 337 329 382 376 400 367 348 358 328 293 233 203 210 202 198 194 178 156 102 82 75 74 52 91 63 66 71
756 703 686 688 687 599 433 423 409 555 404 372 319 305 378 399 379 427 455 432 354 353 320 294 246 203 171 203 184 195 190 162 146 110 129 130 105 98 106 84 68 42 42
630 572 576 612 608 568 336 396 363 283 247 205 218 277 304 300 324 376 426 461 364 231 185 197 209 185 203 167 155 150 136 104 132 85 99 98 83 81 100 81 47 28 17
609 503 476 495 540 500 375 300 232 185 181 158 169 224 264 277 286 357 507 559 559 515 348 270 231 186 177 135 122 112 86 149 156 123 104 127 83 114 65 89 17 8 7
388 360 357 389 425 386 258 146 142 163 130 128 190 207 214 254 259 334 446 500 533 500 394 347 317 296 270 260 225 185 138 113 120 117 134 130 145 146 107 111 50 11 7
303 282 300 242 223 210 111 60 82 157 183 211 197 177 206 283 242 329 382 398 460 353 325 306 293 286 244 239 246 247 210 130 170 150 130 149 170 133 113 113 83 41 46

GFSMA_con_3kmhel_207.txt.gz
Helicity
344 337 275 219 159 155 142 173 203 240 353 364 340 373 389 389 425 385 345 370 211 140 122 82 88 105 128 158 168 144 141 133 128 132 140 152 141 131 124 132 134 135 143
354 283 268 210 170 153 186 236 260 334 454 471 418 364 408 417 364 396 406 334 272 244 201 127 95 104 114 126 134 132 132 137 138 132 128 138 131 129 132 135 125 118 128
323 329 331 276 231 220 240 290 333 422 511 525 544 434 357 312 365 327 316 250 293 309 316 310 187 115 116 112 121 119 131 125 130 131 134 142 142 138 150 153 152 129 131
395 480 361 371 326 266 248 287 362 483 542 560 602 436 324 287 250 212 224 259 246 267 340 341 340 229 177 134 122 126 126 116 119 127 125 119 115 118 127 133 129 142 158
312 304 326 415 350 299 251 292 351 427 543 564 573 501 383 279 215 202 168 166 220 241 274 290 337 366 255 192 146 129 134 138 132 121 122 122 120 121 130 145 143 139 145
493 471 446 407 349 299 256 335 427 474 509 591 629 568 421 318 228 196 163 140 124 152 182 217 274 303 343 237 188 161 144 151 132 119 109 114 112 117 134 141 137 124 120
415 411 345 326 329 271 262 411 537 507 625 621 701 609 491 311 261 232 130 154 134 116 186 193 194 227 309 337 225 170 144 147 131 123 112 108 132 128 124 128 135 131 125
469 450 374 327 290 342 374 362 532 578 610 555 558 639 487 353 223 186 231 190 158 163 178 168 167 197 246 302 221 174 141 123 119 122 123 128 147 122 106 115 119 124 136
442 440 413 443 397 244 334 399 565 616 634 526 537 411 495 353 353 216 259 246 231 248 205 143 169 195 212 215 196 179 184 147 120 118 121 127 120 115 119 98 107 114 120
360 416 429 378 295 325 327 434 551 582 621 555 317 268 239 292 464 354 239 189 218 235 208 207 217 186 178 140 162 213 237 198 159 132 133 133 131 130 134 121 116 118 125
308 366 413 379 358 403 396 479 571 585 536 482 347 351 360 296 330 376 368 267 208 195 187 222 235 219 186 173 175 196 206 202 171 150 137 125 134 139 126 121 111 113 137
366 363 426 440 396 377 467 456 567 567 507 417 352 341 363 414 371 400 347 287 249 178 190 199 254 211 150 154 165 190 200 186 167 154 142 129 135 142 149 126 108 114 137
348 348 418 524 453 425 452 511 537 544 490 427 315 347 298 281 295 368 326 334 314 277 229 186 251 219 137 159 149 179 182 174 164 152 151 152 146 135 133 143 122 115 123
373 395 434 458 513 480 509 475 488 521 459 392 305 307 295 292 321 346 374 433 414 321 271 263 264 237 159 138 130 159 155 172 170 158 146 156 150 148 138 131 123 117 117
365 418 419 438 498 503 573 557 488 466 464 384 284 300 288 273 343 352 310 356 414 306 236 253 331 212 199 142 122 134 138 144 161 155 159 158 153 137 128 119 112 111 122
320 423 460 447 474 498 458 536 523 439 406 370 294 300 329 356 388 433 349 318 259 305 271 314 340 220 173 155 110 127 109 131 138 146 156 142 137 134 132 126 113 111 115
326 452 460 472 452 482 554 576 584 436 393 348 339 341 388 447 436 406 340 278 279 207 252 362 330 233 232 165 126 129 121 112 96 124 127 126 120 118 124 123 113 102 98
190 324 487 520 498 524 556 639 741 510 628 475 369 434 433 471 419 425 333 272 307 229 268 339 269 249 270 229 160 152 107 90 82 96 103 104 102 102 108 115 107 92 79
274 344 443 557 639 629 701 709 671 710 766 532 427 456 454 440 436 329 281 306 292 291 262 311 294 250 242 179 188 137 122 104 79 85 95 89 88 95 96 103 103 96 85
337 518 592 626 676 624 677 792 777 791 749 638 460 459 422 377 364 367 423 370 410 370 307 328 315 295 242 187 232 199 185 101 76 74 73 65 74 80 87 90 89 86 80
367 497 595 627 548 594 732 799 777 855 785 594 476 406 350 276 278 286 374 395 422 431 386 382 357 333 299 248 231 238 181 144 128 107 99 74 79 89 70 57 73 64 53
425 471 516 626 681 760 715 823 779 753 667 531 508 446 415 266 323 252 300 338 369 426 422 389 342 313 302 294 229 268 268 223 166 101 145 91 106 100 75 51 58 53 40
453 495 566 630 735 712 717 618 543 560 580 521 509 456 424 432 304 374 418 379 334 321 342 349 324 259 283 270 260 240 213 197 136 113 166 109 111 104 83 53 67 64 50
578 604 729 736 702 578 568 533 513 538 526 425 372 414 317 361 336 442 466 461 400 314 278 273 267 271 221 217 208 205 174 175 189 176 123 111 114 100 98 71 37 38 34
601 675 738 667 578 455 402 461 492 434 261 260 253 356 197 296 319 367 478 480 460 383 286 274 274 233 230 189 154 214 205 228 189 144 142 128 124 114 100 72 32 21 20
554 537 479 443 378 386 356 339 350 304 290 284 219 132 205 268 291 364 408 415 442 355 386 385 353 346 323 282 222 174 162 155 189 168 126 161 150 118 109 89 62 45 51